カタログに戻る

STARLINK-32014

運用中通信VLEO
NORAD 60150·PAYLOAD·🇺🇸 United States

打ち上げ Jun 27, 2024 から Cape Canaveral Space Force Station

Loading…

次のパス (今後24時間)

TLE

最新Source: CelesTrak SupGP

元期: Sep 15, 2026, 02:27 UTC

1 60150C 24120R   26258.10256944 -.00022079  00000+0 -65241-3 0  2585
2 60150  53.1565 157.1743 0001240  87.5831  58.4653 15.34398314    19

AllMySatでSTARLINK-32014をリアルタイム追跡

Download on the App Store